Regional Weather Roundup
Issued by NWS

Home | Current Version | Previous Version | Graphics & Text | Print | Product List | Glossary On
Versions: 1 2 3 4 5 6 7 8 9 10 11 12 13 14 15 16 17 18 19 20 21 22 23 24 25 26 27 28 29 30 31 32 33 34 35 36 37 38 39 40 41 42 43 44 45 46 47 48 49 50
000
ASUS45 KBOI 290410
RWRID

IDAHO REGIONAL WEATHER ROUNDUP
NATIONAL WEATHER SERVICE BOISE ID
1000 PM MDT TUE JUL 28 2015

NOTE: "FAIR" INDICATES FEW OR NO CLOUDS BELOW 12000 FEET
WITH NO SIGNIFICANT WEATHER AND/OR OBSTRUCTIONS TO VISIBILITY

IDZ012-014-290500-
SOUTHWEST IDAHO


CITY           SKY/WX    TMP DP  RH WIND       PRES   REMARKS
BOISE          CLEAR     72  38  29 W5        30.18R
CALDWELL       CLEAR     70  37  30 W3        30.19R
MOUNTAIN HOME  CLEAR     71  31  23 NW6       30.19R
$$

IDZ016-017-290500-
SOUTHCENTRAL IDAHO


CITY           SKY/WX    TMP DP  RH WIND       PRES   REMARKS
BURLEY         CLEAR     56  39  53 CALM      30.24R
JEROME         CLEAR     54  37  52 CALM      30.25R
TWIN FALLS     CLEAR     54  28  36 S8        30.23R
$$

IDZ019>023-290500-
SOUTHEAST IDAHO


CITY           SKY/WX    TMP DP  RH WIND       PRES   REMARKS
IDAHO FALLS    PTCLDY    52  43  71 CALM      30.30R
POCATELLO      CLEAR     59  33  37 SE3       30.28R
REXBURG        PTCLDY    60  36  40 CALM      30.31R
$$

IDZ006-010-011-018-031-032-290500-
CENTRAL IDAHO MOUNTAINS


CITY           SKY/WX    TMP DP  RH WIND       PRES   REMARKS
MCCALL         CLEAR     58  37  45 NE3       30.27R
HAILEY         CLEAR     52  41  66 CALM      30.32R
STANLEY          N/A     49  33  54 S3        30.36R
SALMON         CLEAR     57  43  58 S5        30.26R
CHALLIS        CLEAR     60  39  45 S5        30.29R
$$

IDZ002-004-006-007-026-290500-
NORTHERN IDAHO


CITY           SKY/WX    TMP DP  RH WIND       PRES   REMARKS
LEWISTON       CLEAR     77  33  20 NE5       30.14R
LOWELL           N/A     61  51  70 N3        30.20R
COEUR D`ALENE  CLEAR     68  39  34 S6        30.16S
MULLAN PASS    CLEAR     53  34  48 VRB5      30.34S
$$


USA.gov is the U.S. government's official web portal to all federal, state and local government web resources and services.